• In Italy
  • List of Countries
  • For 7 days
  • Water Temperature
  • Satellite Maps
  • Weather Map
  • Weather Widgets
  • user-avatar
    Login

    Hourly Weather Tibissa

    Today, 27 July, Thursday

    Time Temperature Precipitation Wind Pressure Humidity
    00:00 +25°C° 0 mm 3 mps 686 mmHg 47%
    01:00 +24°C° 0 mm 3 mps 686 mmHg 49%
    02:00 +23°C° 0 mm 2 mps 686 mmHg 51%
    03:00 +23°C° 0 mm 2 mps 686 mmHg 54%
    04:00 +21°C° 0 mm 2 mps 685 mmHg 56%
    05:00 +21°C° 0 mm 2 mps 686 mmHg 56%
    06:00 +21°C° 0 mm 2 mps 686 mmHg 57%
    07:00 +21°C° 0 mm 2 mps 686 mmHg 57%
    08:00 +24°C° 0 mm 2 mps 687 mmHg 50%
    09:00 +25°C° 0 mm 3 mps 687 mmHg 43%
    10:00 +26°C° 0 mm 3 mps 688 mmHg 36%
    11:00 +27°C° 0 mm 4 mps 688 mmHg 32%
    12:00 +29°C° 0 mm 4 mps 688 mmHg 28%
    13:00 +30°C° 0 mm 5 mps 688 mmHg 25%
    14:00 +32°C° 0 mm 5 mps 688 mmHg 23%
    15:00 +32°C° 0 mm 5 mps 688 mmHg 22%
    16:00 +33°C° 0 mm 5 mps 687 mmHg 21%
    17:00 +32°C° 0 mm 5 mps 687 mmHg 22%
    18:00 +32°C° 0 mm 5 mps 687 mmHg 24%
    19:00 +30°C° 0 mm 5 mps 687 mmHg 25%
    20:00 +29°C° 0 mm 4 mps 688 mmHg 29%
    21:00 +28°C° 0 mm 4 mps 688 mmHg 32%
    22:00 +27°C° 0 mm 3 mps 688 mmHg 35%
    23:00 +27°C° 0 mm 3 mps 688 mmHg 38%

    Tomorrow, 28 July, Friday

    Time Temperature Precipitation Wind Pressure Humidity
    00:00 +26°C° 0 mm 2 mps 688 mmHg 41%
    01:00 +25°C° 0 mm 1 mps 688 mmHg 43%
    02:00 +25°C° 0 mm 1 mps 688 mmHg 45%
    03:00 +22°C° 0 mm 0 mps 687 mmHg 47%
    04:00 +22°C° 0 mm 0 mps 687 mmHg 48%
    05:00 +22°C° 0 mm 0 mps 687 mmHg 46%
    06:00 +23°C° 0 mm 0 mps 688 mmHg 44%
    07:00 +23°C° 0 mm 0 mps 688 mmHg 41%
    08:00 +27°C° 0 mm 1 mps 688 mmHg 37%
    09:00 +28°C° 0 mm 1 mps 689 mmHg 33%
    10:00 +30°C° 0 mm 1 mps 689 mmHg 28%
    11:00 +31°C° 0 mm 2 mps 689 mmHg 26%
    12:00 +34°C° 0 mm 2 mps 690 mmHg 23%
    13:00 +35°C° 0 mm 3 mps 690 mmHg 20%
    14:00 +35°C° 0 mm 3 mps 689 mmHg 19%
    15:00 +36°C° 0 mm 3 mps 689 mmHg 18%
    16:00 +37°C° 0 mm 3 mps 689 mmHg 17%
    17:00 +36°C° 0 mm 4 mps 689 mmHg 18%
    18:00 +36°C° 0 mm 4 mps 689 mmHg 18%
    19:00 +36°C° 0 mm 4 mps 689 mmHg 19%
    20:00 +34°C° 0 mm 4 mps 689 mmHg 21%
    21:00 +33°C° 0 mm 3 mps 689 mmHg 24%
    22:00 +31°C° 0 mm 3 mps 689 mmHg 27%
    23:00 +30°C° 0 mm 3 mps 689 mmHg 30%

    Day after tomorrow, 29 July, Saturday

    Time Temperature Precipitation Wind Pressure Humidity
    00:00 +29°C° 0 mm 2 mps 689 mmHg 33%
    01:00 +29°C° 0 mm 2 mps 689 mmHg 37%
    02:00 +28°C° 0 mm 2 mps 689 mmHg 39%
    03:00 +27°C° 0 mm 2 mps 688 mmHg 41%
    04:00 +27°C° 0 mm 2 mps 688 mmHg 43%
    05:00 +27°C° 0 mm 1 mps 688 mmHg 42%
    06:00 +27°C° 0 mm 1 mps 689 mmHg 41%
    07:00 +28°C° 0 mm 1 mps 689 mmHg 40%
    08:00 +29°C° 0 mm 2 mps 689 mmHg 36%
    09:00 +31°C° 0 mm 2 mps 690 mmHg 32%
    10:00 +32°C° 0 mm 2 mps 690 mmHg 28%
    11:00 +34°C° 0 mm 2 mps 690 mmHg 25%
    12:00 +36°C° 0 mm 2 mps 690 mmHg 23%
    13:00 +37°C° 0 mm 2 mps 690 mmHg 20%
    14:00 +37°C° 0 mm 3 mps 690 mmHg 19%
    15:00 +38°C° 0 mm 3 mps 689 mmHg 19%
    16:00 +38°C° 0 mm 3 mps 689 mmHg 18%
    17:00 +38°C° 0 mm 3 mps 689 mmHg 19%
    18:00 +37°C° 0 mm 4 mps 689 mmHg 19%
    19:00 +37°C° 0 mm 4 mps 689 mmHg 20%
    20:00 +36°C° 0 mm 4 mps 689 mmHg 23%
    21:00 +34°C° 0 mm 4 mps 689 mmHg 25%
    22:00 +33°C° 0 mm 5 mps 689 mmHg 28%
    23:00 +32°C° 0 mm 5 mps 689 mmHg 30%

    30 July, Sunday

    Time Temperature Precipitation Wind Pressure Humidity
    00:00 +30°C° 0 mm 4 mps 689 mmHg 33%
    01:00 +29°C° 0 mm 4 mps 688 mmHg 35%
    02:00 +29°C° 0 mm 4 mps 688 mmHg 37%
    03:00 +28°C° 0 mm 3 mps 688 mmHg 38%
    04:00 +27°C° 0 mm 2 mps 687 mmHg 40%
    05:00 +28°C° 0 mm 2 mps 688 mmHg 39%
    06:00 +28°C° 0 mm 2 mps 688 mmHg 37%
    07:00 +28°C° 0 mm 2 mps 688 mmHg 36%
    08:00 +30°C° 0 mm 3 mps 688 mmHg 32%
    09:00 +33°C° 0 mm 3 mps 689 mmHg 28%
    10:00 +35°C° 0 mm 4 mps 689 mmHg 24%
    11:00 +36°C° 0 mm 4 mps 689 mmHg 22%
    12:00 +37°C° 0 mm 4 mps 689 mmHg 20%
    13:00 +38°C° 0 mm 4 mps 689 mmHg 18%
    14:00 +40°C° 0 mm 4 mps 688 mmHg 17%
    15:00 +40°C° 0 mm 4 mps 688 mmHg 16%
    16:00 +41°C° 0 mm 4 mps 688 mmHg 15%
    17:00 +40°C° 0 mm 5 mps 688 mmHg 15%
    18:00 +40°C° 0 mm 5 mps 688 mmHg 16%
    19:00 +39°C° 0 mm 6 mps 687 mmHg 16%
    20:00 +37°C° 0 mm 5 mps 688 mmHg 20%
    21:00 +35°C° 0 mm 5 mps 688 mmHg 23%
    22:00 +33°C° 0 mm 5 mps 688 mmHg 27%
    23:00 +33°C° 0 mm 4 mps 688 mmHg 29%

    31 July, Monday

    Time Temperature Precipitation Wind Pressure Humidity
    00:00 +31°C° 0 mm 3 mps 687 mmHg 31%
    01:00 +30°C° 0 mm 2 mps 687 mmHg 33%
    02:00 +29°C° 0 mm 2 mps 687 mmHg 34%
    03:00 +29°C° 0 mm 2 mps 687 mmHg 36%
    04:00 +28°C° 0 mm 1 mps 686 mmHg 37%
    05:00 +29°C° 0 mm 2 mps 687 mmHg 36%
    06:00 +29°C° 0 mm 2 mps 687 mmHg 35%
    07:00 +29°C° 0 mm 2 mps 687 mmHg 33%
    08:00 +31°C° 0 mm 2 mps 687 mmHg 29%
    09:00 +34°C° 0 mm 2 mps 688 mmHg 25%
    10:00 +36°C° 0 mm 3 mps 688 mmHg 21%
    11:00 +37°C° 0 mm 3 mps 688 mmHg 19%
    12:00 +38°C° 0 mm 3 mps 688 mmHg 18%
    13:00 +39°C° 0 mm 3 mps 688 mmHg 16%
    14:00 +41°C° 0 mm 4 mps 687 mmHg 15%
    15:00 +41°C° 0 mm 4 mps 687 mmHg 15%
    16:00 +42°C° 0 mm 4 mps 687 mmHg 14%
    17:00 +41°C° 0 mm 5 mps 687 mmHg 15%
    18:00 +40°C° 0 mm 5 mps 687 mmHg 16%
    19:00 +39°C° 0 mm 6 mps 687 mmHg 17%
    20:00 +37°C° 0 mm 5 mps 687 mmHg 19%
    21:00 +36°C° 0 mm 5 mps 687 mmHg 22%
    22:00 +34°C° 0 mm 5 mps 687 mmHg 25%
    23:00 +33°C° 0 mm 4 mps 687 mmHg 27%

    1 August, Tuesday

    Time Temperature Precipitation Wind Pressure Humidity
    00:00 +31°C° 0 mm 3 mps 687 mmHg 30%
    01:00 +31°C° 0 mm 3 mps 687 mmHg 32%
    02:00 +30°C° 0 mm 2 mps 687 mmHg 34%
    03:00 +30°C° 0 mm 2 mps 687 mmHg 35%
    04:00 +29°C° 0 mm 2 mps 686 mmHg 36%
    05:00 +29°C° 0 mm 2 mps 687 mmHg 35%
    06:00 +30°C° 0 mm 2 mps 687 mmHg 34%
    07:00 +30°C° 0 mm 1 mps 687 mmHg 33%
    08:00 +32°C° 0 mm 2 mps 688 mmHg 29%
    09:00 +35°C° 0 mm 3 mps 688 mmHg 25%
    10:00 +37°C° 0 mm 4 mps 689 mmHg 21%
    11:00 +38°C° 0 mm 4 mps 689 mmHg 19%
    12:00 +40°C° 0 mm 5 mps 689 mmHg 17%
    13:00 +41°C° 0 mm 5 mps 689 mmHg 15%
    14:00 +41°C° 0 mm 5 mps 688 mmHg 15%
    15:00 +41°C° 0 mm 6 mps 688 mmHg 15%
    16:00 +41°C° 0 mm 6 mps 688 mmHg 15%
    17:00 +40°C° 0 mm 6 mps 688 mmHg 16%
    18:00 +39°C° 0 mm 6 mps 688 mmHg 17%
    19:00 +38°C° 0 mm 6 mps 688 mmHg 19%
    20:00 +36°C° 0 mm 5 mps 688 mmHg 22%
    21:00 +34°C° 0 mm 5 mps 688 mmHg 25%
    22:00 +33°C° 0 mm 4 mps 688 mmHg 28%
    23:00 +31°C° 0 mm 3 mps 688 mmHg 30%
    Show more